ES0THZ-13 Weather Reports


time (UTC)temp
C
wind
direction
speed
KPH
gust
KPH
rain 1hr
cm
rain 24hr
cm
rain mn
cm
humidity
%
barometer
mb
20260506173600 8 337 0.0 24.1 0.00 0.00 0.00 59 1008.1
20260506171921 8 337 0.0 38.6 0.00 0.00 0.00 59 1008.1
20260506170111 9 22 0.0 27.4 0.00 0.00 0.00 59 1007.4
20260506164146 10 270 0.0 19.3 0.00 0.00 0.00 59 1008.1
20260506162336 10 315 0.0 25.7 0.00 0.00 0.00 59 1009.2
20260506160426 10 22 0.0 16.1 0.00 0.00 0.00 59 1007.2
20260506154626 11 22 0.0 0.0 0.00 0.00 0.00 59 1008.3
20260506152836 11 180 0.0 0.0 0.00 0.00 0.00 59 1007.5
20260506151056 11 157 0.0 0.0 0.00 0.00 0.00 59 1007.7
20260506145241 12 157 0.0 0.0 0.00 0.00 0.00 59 1008.1
20260506143501 12 157 0.0 8.0 0.00 0.00 0.00 59 1007.8
20260506141846 13 135 0.0 0.0 0.00 0.00 0.00 59 1007.5
20260506140118 12 135 0.0 0.0 0.00 0.00 0.00 60 1009.7
20260506134206 12 112 0.0 9.7 0.00 0.00 0.00 61 1009.5
20260506132451 12 157 0.0 12.9 0.00 0.00 0.00 61 1009.0
20260506130651 12 157 0.0 22.5 0.00 0.00 0.00 61 1008.6
20260506124816 13 135 19.3 19.3 0.00 0.00 0.00 60 1009.7
20260506123041 13 135 0.0 0.0 0.00 0.00 0.00 60 1009.5
20260506121121 13 135 0.0 29.0 0.00 0.00 0.00 61 1009.3
20260506115426 14 180 0.0 9.7 0.00 0.00 0.00 61 1010.1
20260506113656 12 67 0.0 17.7 0.00 0.00 0.00 63 1009.2
20260506111851 12 90 20.9 29.0 0.00 0.00 0.00 64 1008.7
20260506110011 13 135 0.0 32.2 0.00 0.00 0.00 62 1009.8
20260506104311 13 22 0.0 0.0 0.00 0.00 0.00 62 1009.2
20260506102526 13 67 0.0 32.2 0.00 0.00 0.00 61 1009.7
20260506100811 14 180 0.0 20.9 0.00 0.00 0.00 60 1009.4
20260506095106 15 157 0.0 0.0 0.00 0.00 0.00 60 1009.0
20260506093346 13 157 0.0 32.2 0.00 0.00 0.00 60 1009.8
20260506091621 15 0 0.0 19.3 0.00 0.00 0.00 58 1009.8
20260506085751 15 157 0.0 16.1 0.00 0.00 0.00 57 1008.7
20260506084121 14 202 0.0 0.0 0.00 0.00 0.00 58 1009.1
20260506082346 14 270 0.0 0.0 0.00 0.00 0.00 60 1009.2
20260506080556 13 0 0.0 0.0 0.00 0.00 0.00 61 1008.9
20260506072846 12 292 0.0 0.0 0.00 0.00 0.00 65 1008.0
20260506071151 12 315 19.3 33.8 0.00 0.00 0.00 66 1009.5
20260506061626 12 315 0.0 0.0 0.00 0.00 0.00 71 1008.8
20260506050456 11 315 0.0 0.0 0.00 0.00 0.00 76 1008.3
20260506044611 10 315 0.0 0.0 0.00 0.00 0.00 77 1009.0
20260506042841 9 315 0.0 0.0 0.00 0.00 0.00 78 1008.7
20260506041121 9 292 0.0 0.0 0.00 0.00 0.00 79 1007.2
20260506035406 8 270 0.0 0.0 0.00 0.00 0.00 79 1006.9
20260506033621 7 270 0.0 0.0 0.00 0.00 0.00 80 1007.7
20260506031721 5 247 0.0 0.0 0.00 0.00 0.00 81 1006.3
20260506030001 4 292 0.0 0.0 0.00 0.00 0.00 81 1007.0
20260506024056 3 247 0.0 0.0 0.00 0.00 0.00 82 1006.9
20260506022151 3 247 0.0 0.0 0.00 0.00 0.00 83 1007.7
20260506020331 2 270 0.0 0.0 0.00 0.00 0.00 82 1006.6
20260506014641 3 247 0.0 0.0 0.00 0.00 0.00 82 1005.8
20260506012841 3 225 0.0 0.0 0.00 0.00 0.00 82 1006.8
20260506011141 3 247 0.0 0.0 0.00 0.00 0.00 82 1005.4
20260506005356 2 247 0.0 0.0 0.00 0.00 0.00 82 1006.2
20260506003501 3 225 0.0 0.0 0.00 0.00 0.00 81 1005.9
20260506001601 3 202 0.0 0.0 0.00 0.00 0.00 81 1004.6
20260505235811 3 247 0.0 0.0 0.00 0.00 0.00 81 1005.1
20260505234056 3 202 0.0 0.0 0.00 0.00 0.00 80 1005.2
20260505232221 2 247 0.0 0.0 0.00 0.00 0.00 80 1005.4
20260505230301 2 247 0.0 0.0 0.00 0.00 0.00 80 1003.9
20260505224531 2 247 0.0 0.0 0.00 0.00 0.00 79 1005.1
20260505222721 3 225 0.0 0.0 0.00 0.00 0.00 79 1006.2
20260505220941 3 202 0.0 0.0 0.00 0.00 0.00 78 1005.4
20260505215256 3 225 0.0 0.0 0.00 0.00 0.00 78 1004.7
20260505213436 3 202 0.0 0.0 0.00 0.00 0.00 77 1004.8
20260505211601 3 202 0.0 0.0 0.00 0.00 0.00 77 1005.8
20260505205745 3 180 0.0 0.0 0.00 0.00 0.00 76 1004.9
20260505203941 4 202 0.0 0.0 0.00 0.00 0.00 75 1004.6
20260505202156 5 180 0.0 0.0 0.00 0.00 0.00 74 1004.1
20260505200521 5 225 0.0 0.0 0.00 0.00 0.00 74 1005.0
20260505194811 5 202 0.0 0.0 0.00 0.00 0.00 73 1004.8
20260505192936 6 247 0.0 0.0 0.00 0.00 0.00 71 1004.4
20260505191241 6 270 0.0 0.0 0.00 0.00 0.00 70 1005.2
20260505185456 6 247 0.0 0.0 0.00 0.00 0.00 69 1004.4
20260505183601 7 292 0.0 0.0 0.00 0.00 0.00 68 1004.4
20260505181631 7 270 0.0 0.0 0.00 0.00 0.00 66 1004.2